Dewpoint
18 17 18 18 18 17 18 17 17 17 16 16 15 15 15 15 16 16 13 14 16 16 15 15 15 15 16 15 15 16 15 15 15 15 16 16 15 15 15 15 15 15 15
17 18 18 18 18 18 17 17 17 16 17 17 16 16 15 15 17 15 15 16 17 16 15 16 15 16 15 15 14 16 15 16 16 14 16 16 16 15 16 16 15 15 15
17 17 18 18 18 18 17 18 17 17 17 17 16 16 16 16 16 16 15 16 15 16 15 16 16 16 16 16 15 16 16 15 16 16 15 17 16 14 14 16 15 15 15
17 17 17 18 17 17 18 17 17 17 17 17 16 16 16 17 17 17 17 17 16 14 15 16 16 16 15 15 14 16 17 16 16 15 15 16 15 14 16 15 16 15 16
17 17 18 18 17 17 18 18 18 17 17 17 17 16 17 16 16 16 16 16 11 14 16 15 15 16 15 15 14 14 14 14 16 16 16 16 16 15 14 16 16 15 14
18 17 18 18 18 18 18 17 17 17 17 17 17 17 16 15 15 16 15 16 13 13 14 13 13 15 15 14 14 13 15 15 15 15 16 16 15 15 15 16 16 15 15
18 18 18 18 18 18 18 18 17 17 17 17 18 16 17 16 15 16 15 16 16 15 13 12 12 12 12 12 13 12 14 14 15 15 15 15 16 16 16 16 14 15 15
18 18 18 17 18 18 18 18 18 18 18 18 17 17 16 16 16 14 14 14 16 16 16 12 12 12 12 11 12 12 10 9 8 15 16 16 16 15 16 16 16 15 15
18 17 17 17 17 17 17 17 17 18 18 17 17 17 16 16 10 10 13 15 16 15 15 15 13 14 13 11 10 11 12 13 12 12 15 16 15 15 15 16 16 16 16
18 17 17 17 17 17 17 17 17 17 18 18 18 16 16 16 13 8 9 14 14 15 14 15 14 15 13 12 12 11 13 13 12 13 7 9 10 12 14 15 15 15 15
18 18 18 17 17 17 17 18 18 17 17 17 17 17 16 14 13 8 9 8 13 14 14 15 14 15 15 13 12 11 10 8 6 3 4 5 6 8 8 8 9 12 10
19 19 18 17 17 18 17 17 17 17 16 17 16 16 16 16 14 9 8 8 11 12 13 13 14 14 13 13 13 11 8 6 7 9 9 11 12 12 12 12 12 11 12
19 18 18 18 17 17 17 16 16 16 16 17 16 16 15 16 16 12 10 9 8 7 13 13 13 13 13 12 12 11 8 7 5 6 7 9 10 10 11 12 13 12 12
18 18 18 17 18 17 16 16 15 15 13 11 12 13 13 14 16 15 12 11 9 8 9 11 13 13 13 11 12 11 9 7 5 6 6 7 9 11 12 12 11 12 11
17 17 17 16 15 13 14 14 15 13 12 9 9 9 9 14 15 15 13 14 11 10 11 12 12 13 13 12 11 11 9 7 6 8 8 8 8 10 11 10 10 10 10
15 14 14 14 15 15 16 16 14 13 11 10 13 13 12 14 14 13 14 13 12 12 12 12 12 12 11 11 11 10 9 8 9 9 10 10 10 10 10 10 10 9 8
14 15 15 15 14 15 15 14 13 11 14 15 15 15 13 13 14 14 14 14 13 13 12 10 11 11 11 11 11 10 8 8 8 9 9 10 10 10 9 9 9 8 7
14 14 14 15 15 15 14 13 14 14 15 15 14 13 12 14 14 13 13 14 14 14 13 12 11 11 11 10 10 8 6 7 8 3 1 4 8 7 5 6 7 7 7
16 16 15 14 14 14 15 15 15 15 14 13 14 13 13 13 12 13 13 13 13 13 13 12 11 10 9 8 7 6 6 7 6 2 2 2 3 6 7 6 6 5 5
14 12 14 14 14 14 14 14 13 13 13 13 13 13 12 12 12 13 13 13 13 13 12 11 9 8 7 6 6 6 5 5 6 8 8 8 7 6 5 4 4 4 4
14 14 13 14 14 14 14 13 13 14 13 13 13 12 11 11 11 11 12 12 12 12 10 8 9 8 9 7 5 5 4 4 3 4 7 8 8 6 5 5 4 4 4
14 14 13 13 14 13 14 13 13 14 13 13 11 9 10 11 11 11 11 11 11 10 9 9 8 7 8 7 6 6 5 5 6 7 7 8 7 7 5 5 4 4 4
12 13 12 13 13 12 13 14 13 13 13 13 12 11 9 9 9 10 10 11 10 10 10 9 10 9 9 8 8 7 7 6 5 5 6 7 6 5 5 5 5 4 4
9 9 10 11 11 11 12 13 12 12 12 13 13 12 11 11 11 11 10 10 10 10 10 11 10 8 7 8 8 7 7 7 8 7 7 7 7 7 6 5 4 4 4
8 9 9 8 9 10 12 12 12 13 12 12 12 12 12 11 10 11 11 11 11 11 9 7 8 8 8 8 8 7 7 7 6 4 5 6 6 6 6 6 4 4 4
4 5 5 5 5 6 7 8 9 10 11 12 11 11 11 11 10 10 11 11 10 10 10 9 9 8 8 7 7 7 7 6 6 4 4 4 6 6 6 6 5 4 4
Wind_Speed
16 17 16 18 19 19 23 21 18 17 15 15 19 18 18 19 17 18 19 18 19 23 25 21 19 19 22 24 20 15 15 15 16 13 17 21 25 22 20 23 23 25 22
16 17 16 18 17 16 17 17 17 16 15 14 15 16 15 16 16 17 16 16 20 20 18 19 19 18 20 20 24 16 19 13 13 11 5 23 20 20 19 22 17 18 17
16 16 15 18 16 16 16 15 14 15 14 14 13 14 15 15 14 14 13 14 12 11 13 16 18 20 21 18 19 22 17 15 15 8 10 8 10 16 23 21 19 19 20
16 16 17 16 15 15 17 15 16 15 14 13 13 12 13 13 13 10 10 9 8 12 12 16 16 22 22 20 20 20 13 9 11 13 14 14 16 17 18 19 22 22 20
16 16 17 17 16 15 15 15 12 13 13 13 11 11 12 11 11 13 9 8 3 6 9 9 14 23 22 20 17 18 13 12 9 13 11 13 14 18 21 18 18 16 18
19 19 18 16 17 18 19 18 17 16 13 13 13 14 12 9 15 20 10 10 5 5 8 6 4 13 18 19 16 13 11 13 17 16 16 18 17 19 17 16 18 16 17
19 19 19 20 20 20 20 20 21 19 16 16 14 11 10 11 13 15 15 12 10 9 9 8 9 12 11 13 16 18 15 12 15 18 20 21 21 20 19 20 22 20 21
20 22 21 22 20 18 18 18 18 17 17 16 14 12 13 13 17 16 14 13 13 12 12 10 12 11 12 10 9 12 8 12 15 18 17 17 18 20 21 19 20 22 20
22 24 26 24 23 22 23 22 21 19 19 18 14 14 15 16 15 14 13 9 9 10 12 14 14 12 12 13 14 15 16 18 18 17 19 16 15 13 15 15 16 16 16
23 24 24 25 25 24 23 23 22 22 20 15 15 14 15 15 15 15 15 11 11 11 11 11 13 13 15 15 16 16 15 14 15 15 18 22 21 18 16 15 9 11 12
20 21 23 25 25 25 24 22 22 22 18 17 16 16 16 18 18 18 17 18 13 13 13 15 15 18 20 15 16 16 16 15 15 15 16 13 16 17 18 19 19 11 11
21 21 22 23 24 23 25 23 21 20 19 18 19 17 13 18 23 20 20 20 19 17 15 12 17 16 16 20 18 18 16 15 12 10 10 10 11 10 11 12 13 18 12
24 22 23 23 25 25 24 25 24 22 17 15 16 15 13 18 19 24 23 23 24 22 14 18 19 23 23 21 22 19 17 16 12 12 12 13 13 11 12 17 14 18 21
19 19 21 23 25 22 18 17 25 25 24 19 18 21 19 21 21 26 25 27 27 25 23 22 23 21 23 20 19 19 18 14 12 13 13 13 13 14 13 11 11 10 10
6 7 12 14 18 23 27 26 36 27 28 24 27 31 31 26 25 25 27 27 27 23 20 17 21 23 21 20 17 14 15 15 17 16 15 14 17 17 13 14 13 12 12
7 8 11 12 14 14 21 25 30 34 29 35 31 23 24 21 23 27 26 24 22 21 20 20 22 15 17 17 17 16 16 16 15 18 17 17 17 16 16 15 14 14 13
6 8 10 11 8 10 12 16 20 21 23 21 24 22 21 25 22 19 22 26 27 26 26 24 22 18 20 19 19 18 17 16 17 16 21 20 22 20 20 18 16 15 15
4 3 3 8 7 6 9 10 12 11 12 8 11 10 15 17 25 22 21 28 27 29 31 29 23 21 20 20 19 19 17 16 16 18 20 22 24 22 19 17 16 16 15
0 1 1 1 2 4 5 7 9 11 9 10 12 13 12 14 21 21 24 29 32 37 35 34 28 21 21 18 16 16 17 15 16 18 20 18 15 13 15 16 16 17 15
3 4 1 2 1 4 5 6 9 10 9 9 9 10 12 15 19 24 28 30 36 36 36 32 24 20 19 18 16 14 13 13 14 16 15 15 16 17 16 16 17 17 16
3 3 2 1 2 3 3 3 3 3 5 5 6 6 9 13 13 15 19 25 29 31 29 29 20 19 16 15 13 8 10 11 12 15 16 17 16 16 16 15 16 16 17
3 4 6 4 5 3 3 3 4 4 3 3 4 5 5 2 1 1 3 7 14 14 17 18 22 26 23 21 16 11 12 11 11 12 13 15 16 16 16 16 16 17 17
3 3 2 2 2 4 4 4 5 5 4 4 2 4 6 3 1 2 3 6 14 15 16 21 22 23 23 21 20 20 14 16 16 20 22 15 13 15 16 17 18 17 17
3 3 4 4 4 3 5 6 8 8 7 5 5 5 4 3 3 5 4 7 12 17 20 23 25 26 25 24 25 30 32 31 24 20 17 16 18 18 20 20 20 20 20
2 3 3 4 4 4 5 4 3 3 5 4 5 8 4 5 5 5 5 7 8 10 10 11 16 21 24 23 24 24 20 18 17 17 16 22 26 25 20 23 23 21 19
4 5 5 5 5 5 6 6 6 8 7 6 8 4 4 7 8 10 10 10 10 11 14 14 14 14 17 19 21 22 24 24 23 23 27 26 24 24 28 25 23 22 23
Wind_Direction
208 211 215 228 223 215 219 227 208 219 224 227 231 229 230 239 244 240 246 242 246 259 258 247 241 229 210 210 206 216 219 231 244 212 239 206 201 203 213 220 220 227 237
201 205 212 217 209 207 206 214 212 210 218 222 225 228 234 232 232 246 245 252 263 269 255 235 230 213 206 211 207 213 215 222 246 235 198 177 191 205 200 222 216 213 222
198 201 207 209 205 208 214 206 216 212 212 213 228 223 227 226 229 238 252 267 272 276 254 230 226 209 207 210 208 220 217 211 233 231 209 200 218 208 201 216 212 206 218
198 201 204 202 201 206 206 202 208 206 209 214 217 225 228 226 228 228 245 254 255 282 245 215 211 208 206 206 222 249 242 180 215 217 212 217 220 213 213 218 221 214 211
197 200 204 200 198 201 207 202 197 207 212 214 210 217 231 228 224 225 226 225 266 353 212 216 216 212 204 201 218 248 259 227 227 219 211 209 212 211 215 215 230 229 218
196 196 198 196 197 194 199 194 194 204 205 211 212 220 225 225 235 234 225 212 203 128 144 158 139 193 189 199 206 238 254 247 236 236 227 218 217 226 223 212 228 218 215
193 194 196 190 195 195 201 200 201 201 206 213 220 217 219 234 251 245 242 217 227 209 192 181 180 164 173 209 224 231 237 249 254 248 242 236 230 228 219 224 225 229 226
196 194 199 194 195 200 205 208 211 211 209 214 212 205 212 225 248 243 232 215 230 240 215 217 197 199 196 198 203 212 227 256 261 247 244 250 242 234 233 228 226 230 229
201 201 203 200 198 200 206 205 208 208 203 211 206 215 211 223 230 221 218 206 240 229 224 233 224 216 219 222 223 233 233 237 255 254 237 232 243 224 223 220 222 214 212
208 211 208 207 204 205 209 209 208 202 207 204 207 217 219 224 237 221 212 198 222 248 234 227 241 230 225 219 220 225 226 233 228 254 245 244 246 243 229 211 212 230 231
216 213 213 213 212 212 211 210 210 207 207 202 206 213 219 223 238 228 222 212 214 228 239 241 254 252 232 231 230 237 246 248 255 252 247 249 248 246 239 230 212 209 225
224 219 218 219 216 221 216 215 210 217 218 213 206 204 230 234 230 235 230 226 216 207 218 229 250 250 255 238 233 235 247 246 230 244 227 225 222 222 225 221 210 200 224
228 227 220 220 225 219 226 217 212 207 216 216 221 217 215 246 247 243 232 231 231 225 221 233 241 244 253 245 232 240 244 241 225 222 225 223 217 213 210 197 205 221 213
243 242 234 231 227 216 225 284 220 216 210 227 247 250 234 228 240 254 244 231 230 228 235 234 234 237 243 248 242 242 242 229 218 219 220 219 214 207 201 214 220 225 217
243 239 244 238 249 259 264 225 227 234 237 260 274 285 243 221 238 249 265 237 230 231 235 222 235 235 237 233 226 234 230 224 218 216 213 212 209 206 211 211 211 211 213
234 261 256 254 247 247 236 239 238 244 259 271 277 254 236 234 243 255 251 228 230 234 235 221 224 224 226 224 223 225 225 222 219 205 204 201 205 209 208 206 216 215 222
276 249 247 247 236 237 243 252 258 266 271 268 260 269 258 249 247 244 235 242 240 239 228 219 222 229 227 228 227 227 226 223 214 202 200 204 199 206 207 215 214 218 219
302 313 221 248 256 243 244 256 261 266 267 309 295 280 248 230 232 237 236 237 240 240 235 223 218 226 233 230 225 223 216 213 213 213 212 208 211 218 221 223 223 228 230
35 222 175 349 217 247 246 250 248 248 257 263 264 267 270 262 247 243 239 241 243 248 249 237 223 220 223 223 217 212 207 215 228 233 231 229 226 220 226 232 238 235 235
349 303 285 190 315 233 238 248 262 272 272 271 267 264 270 264 251 247 248 246 244 242 234 219 220 219 202 215 212 217 224 226 226 227 226 226 225 225 227 231 233 235 232
323 315 147 208 200 202 216 232 241 246 272 274 291 301 300 299 278 258 252 244 246 245 233 208 213 171 223 215 194 206 219 225 235 235 232 232 233 235 235 236 238 237 235
273 267 293 267 254 269 238 236 241 243 256 281 309 356 344 294 41 303 207 207 232 215 202 208 201 204 205 214 213 224 230 218 219 234 235 240 236 233 239 242 243 241 240
342 328 330 332 322 323 313 266 255 264 275 285 288 307 309 320 39 163 224 211 199 209 216 207 212 215 215 226 225 228 240 263 249 230 224 222 229 241 245 245 248 248 247
17 1 10 354 352 345 324 304 260 270 260 261 256 234 255 248 254 252 243 226 220 222 228 233 236 234 231 237 246 257 260 255 258 240 220 236 238 237 240 243 243 245 247
47 59 58 30 16 14 7 18 9 323 285 296 274 255 239 248 226 246 247 229 226 226 230 249 249 248 251 255 259 256 247 228 235 237 233 247 243 237 241 246 244 245 245
61 58 46 34 26 20 17 17 22 11 2 353 348 353 278 268 279 258 240 229 242 247 249 251 251 262 260 255 246 235 233 239 251 241 235 243 240 239 235 243 244 245 242
Height
1486 1488 1490 1490 1492 1495 1497 1499 1503 1505 1505 1508 1511 1512 1514 1516 1518 1519 1520 1521 1521 1521 1520 1520 1522 1524 1527 1530 1533 1535 1537 1538 1534 1541 1539 1542 1551 1547 1552 1557 1560 1562 1564
1483 1485 1487 1488 1490 1491 1494 1496 1499 1501 1504 1505 1507 1509 1511 1513 1515 1515 1516 1517 1516 1514 1514 1516 1517 1521 1524 1527 1530 1531 1533 1533 1531 1534 1537 1542 1544 1543 1550 1553 1556 1559 1561
1480 1482 1484 1485 1487 1489 1491 1494 1496 1497 1500 1502 1504 1506 1508 1510 1512 1513 1514 1513 1511 1511 1510 1511 1514 1517 1521 1524 1526 1526 1525 1526 1529 1531 1533 1536 1538 1542 1547 1550 1552 1556 1559
1477 1479 1481 1482 1484 1488 1489 1492 1494 1495 1498 1500 1502 1504 1506 1507 1509 1511 1512 1511 1510 1507 1507 1508 1509 1514 1518 1520 1521 1520 1490 1523 1527 1532 1534 1537 1539 1542 1545 1546 1548 1551 1555
1475 1478 1480 1482 1483 1486 1488 1491 1493 1496 1497 1499 1501 1503 1504 1506 1507 1508 1510 1509 1507 1504 1504 1506 1509 1511 1514 1517 1520 1520 1521 1523 1527 1531 1535 1537 1539 1539 1540 1543 1545 1548 1550
1471 1473 1474 1478 1481 1484 1486 1488 1491 1494 1497 1498 1501 1502 1504 1506 1506 1507 1509 1508 1506 1505 1506 1508 1507 1506 1511 1515 1518 1519 1523 1525 1528 1531 1532 1533 1535 1536 1538 1541 1541 1544 1546
1466 1470 1472 1474 1477 1480 1483 1485 1486 1489 1493 1495 1498 1500 1503 1506 1505 1506 1508 1509 1508 1506 1505 1506 1509 1510 1512 1514 1520 1522 1524 1524 1526 1528 1529 1529 1531 1533 1535 1536 1537 1539 1541
1463 1466 1469 1470 1474 1478 1481 1483 1487 1489 1490 1492 1494 1497 1499 1502 1502 1503 1505 1507 1508 1507 1508 1506 1507 1510 1512 1514 1517 1519 1521 1522 1522 1525 1525 1525 1526 1529 1530 1531 1533 1535 1538
1459 1461 1463 1466 1469 1470 1473 1476 1479 1483 1485 1486 1490 1494 1495 1495 1496 1498 1501 1503 1505 1506 1506 1507 1507 1508 1510 1512 1515 1517 1519 1521 1521 1522 1521 1520 1522 1524 1526 1529 1530 1532 1534
1456 1458 1461 1465 1467 1469 1472 1473 1475 1476 1479 1482 1486 1489 1492 1495 1494 1495 1497 1501 1505 1504 1505 1506 1507 1508 1508 1510 1513 1513 1514 1516 1517 1517 1517 1517 1519 1520 1523 1525 1529 1530 1532
1455 1456 1459 1462 1465 1467 1470 1472 1476 1475 1477 1477 1479 1483 1487 1489 1490 1492 1495 1496 1500 1503 1503 1502 1503 1505 1506 1508 1509 1510 1511 1511 1511 1511 1512 1512 1513 1515 1517 1521 1524 1527 1529
1453 1454 1457 1458 1461 1464 1466 1468 1469 1474 1476 1474 1473 1473 1481 1484 1486 1488 1490 1493 1495 1496 1498 1499 1497 1499 1501 1503 1504 1505 1507 1507 1509 1510 1511 1512 1512 1514 1516 1517 1519 1522 1522
1449 1450 1453 1456 1457 1460 1463 1462 1465 1465 1472 1474 1474 1471 1470 1480 1482 1484 1486 1488 1490 1493 1494 1495 1492 1494 1495 1497 1498 1500 1501 1502 1503 1506 1508 1510 1511 1512 1514 1514 1514 1516 1517
1446 1446 1450 1451 1451 1447 1450 1440 1459 1462 1461 1464 1465 1464 1461 1469 1476 1476 1480 1482 1484 1486 1488 1489 1491 1492 1493 1493 1494 1494 1496 1497 1499 1501 1504 1506 1508 1510 1511 1512 1514 1515 1517
1444 1445 1444 1446 1448 1451 1445 1442 1458 1461 1459 1456 1455 1456 1456 1456 1464 1470 1473 1475 1477 1481 1484 1486 1484 1486 1487 1488 1490 1492 1491 1492 1493 1495 1498 1501 1504 1506 1507 1510 1512 1513 1514
1443 1444 1445 1445 1446 1447 1448 1450 1453 1454 1453 1452 1449 1450 1448 1450 1456 1463 1467 1471 1474 1475 1476 1480 1480 1481 1484 1485 1486 1487 1488 1488 1489 1490 1492 1496 1498 1502 1505 1506 1508 1509 1511
1439 1441 1440 1440 1441 1441 1444 1444 1444 1446 1445 1444 1443 1445 1445 1447 1450 1455 1460 1465 1467 1468 1469 1473 1475 1475 1477 1479 1481 1482 1484 1484 1484 1485 1486 1491 1493 1496 1500 1502 1503 1505 1506
1438 1438 1439 1439 1438 1437 1439 1440 1440 1441 1444 1438 1438 1437 1439 1442 1445 1451 1456 1458 1460 1462 1464 1464 1465 1468 1471 1473 1475 1477 1479 1480 1480 1481 1483 1485 1490 1493 1495 1498 1500 1502 1502
1438 1439 1436 1436 1438 1439 1440 1440 1441 1442 1438 1436 1435 1435 1436 1436 1439 1444 1447 1449 1451 1455 1456 1458 1459 1462 1466 1468 1471 1473 1473 1475 1475 1478 1480 1481 1483 1487 1490 1494 1496 1497 1498
1438 1437 1436 1438 1439 1439 1439 1439 1438 1437 1436 1435 1434 1431 1433 1434 1433 1434 1438 1441 1443 1444 1445 1449 1455 1457 1459 1463 1464 1467 1470 1473 1475 1477 1479 1481 1482 1484 1484 1486 1490 1491 1491
1437 1438 1436 1441 1441 1440 1439 1438 1438 1437 1437 1435 1433 1429 1428 1429 1429 1429 1430 1435 1436 1436 1439 1442 1447 1444 1459 1461 1460 1463 1466 1468 1471 1474 1475 1476 1479 1480 1482 1482 1485 1486 1486
1436 1436 1435 1436 1437 1436 1438 1438 1440 1438 1439 1436 1432 1429 1428 1429 1428 1430 1428 1427 1431 1435 1438 1441 1444 1444 1446 1451 1451 1458 1465 1463 1463 1468 1470 1471 1474 1475 1478 1479 1481 1481 1482
1438 1436 1436 1435 1436 1435 1435 1435 1436 1435 1435 1433 1431 1431 1430 1430 1430 1429 1430 1428 1431 1434 1437 1439 1442 1445 1446 1450 1448 1450 1453 1457 1460 1463 1465 1463 1465 1470 1472 1473 1476 1477 1477
1438 1438 1438 1437 1437 1436 1435 1435 1433 1433 1434 1433 1432 1433 1433 1431 1431 1432 1429 1430 1433 1434 1434 1436 1438 1441 1441 1443 1447 1447 1448 1450 1454 1456 1459 1461 1462 1463 1467 1467 1469 1470 1471
1439 1439 1438 1438 1438 1437 1436 1434 1433 1432 1431 1428 1427 1428 1429 1430 1432 1432 1431 1433 1435 1434 1432 1433 1434 1435 1436 1436 1440 1441 1443 1447 1450 1454 1457 1460 1459 1459 1461 1462 1462 1464 1464
1440 1440 1439 1439 1438 1437 1436 1435 1434 1432 1431 1430 1428 1427 1427 1429 1429 1429 1429 1431 1431 1434 1433 1432 1432 1431 1432 1433 1435 1436 1439 1441 1445 1449 1451 1453 1453 1453 1454 1455 1457 1459 1460